Location: Brachbach
(49.1847°N, 9.7240°E)
Time: 14:28:35
(UTC+00:00)

Nimbus 7 Rocket - Pass Details

Date: 14 August 2024
Orbit: 921 x 965 km, 99.4° (Epoch: 14 September)

Event Time Altitude Azimuth Distance (km) Brightness Sun altitude
Rises 23:29:51 0° 21° (NNE) 3,589 8.6 -26.8°
Reaches altitude 10° 23:32:29 10° 29° (NNE) 2,637 7.5 -26.8°
Maximum altitude 23:37:56 38° 97° (E) 1,369 5.2 -26.8°
Enters shadow 23:38:27 38° 110° (ESE) 1,385 5.1 -26.8°
